Showing default

COSMOS 81, 1571

Orbit data source: Space-Track

COSMOS 81, 1571 is a payload satellite owned by OKB-10 (CIS) in LEO that was launched on Fri, 03 Sep 1965 UTC via a KOSMOS 65S3 launch vehicle from the Tyuratam Missile And Space Complex (TTMTR). Payload-class satellites include a variety of spacecraft equipped with specific instruments for various scientific and technological missions. These include communications satellites like Starlink; space stations such as the ISS; scientific satellites like the Hubble; Earth observation satellites from companies like Planet Labs, Umbra, and HawkEye 360; GPS; miniature CubeSats for education and research; and military/defense satellites.

Loading next visibility...
Identifier
1571, 1965-070B
Orbit
LEO
Country
Flag of CISCIS
Related business
Manufacturer
OKB-10
Mission
Spacecraft
Bus & Motor
STRELA-1 11F610, Unknown motor
Mass
50 kg wet, 50 kg dry
Launch date (UTC)
1965-09-03 (60 years ago)
Launch vehicle
KOSMOS 65S3
Launch site
Tyuratam Missile And Space Complex (TTMTR)
Object type
Payload
Rocket body
Debris
Shape & HBR
Unknown
Radar Cross Section
Medium (>0.1 m² and <1 m²)

Expand to show TLE details & history
Last TLE update: 21 hours ago

TLE from 21 hours ago
0 COSMOS 81
1 01571U 65070B   25306.12696725 -.00000088  00000-0  46066-4 0  9999
2 01571  56.0584  92.8852 0089275 142.0696  28.7826 12.48864805744258
Epoch: 2025-11-02T03:02Z
TLE epoch observation values (Epoch: 2025-11-02T03:02:49.970Z)
Latitude
7.132°
Longitude
-179.27689°
Altitude
1,408.405 km
Speed
7.185 km/s
True Right ascension
17h 52m 18s
True Declination
7° 05' 36"
Sunlit
Object was in daylight at epoch
Visualization orbit readout
Latitude
Unknown
Longitude
Unknown
Altitude
Unknown
Speed
Unknown
Apparent Right ascension
Unknown
Apparent Declination
Unknown
Sunlit
N/A
Visualization observer readout
Local Sidereal Time
19:29:20
Azimuth
Unknown
Elevation
Unknown
Doppler factor
Unknown
Orbital elements
Apogee altitude
1,539.126 km
Perigee altitude
1,399.014 km
Semi-major axis
7,847.207 km
Eccentricity
0.00893
Inclination
56.0584°
RAAN
92.8852°
Arg. of periapsis
142.0696°
True anomaly
29.28003°
Mean anomaly
28.7826°
Eccentric anomaly
29.03082°
Mean motion
3.12227 °/min
Orbital period
115.3 mins
BSTAR
0.000046066
Loading maneuver chart data...
Computing Atmospheric mass density...
Loading historical data...
Loading historical data...
Loading historical data...
Loading historical data...
Loading historical data...
Loading historical data...
Loading historical data...
Other satellites on launch #70 in the year 1965 (1965-09-03 UTC)

Documentation

Showing up to 5 results
|